Weather History for 03772 - August, 2014

Change the Weather History Date:

Sunday, August 24, 2014

  Actual Average Record
Temperature  
Mean Temperature 56 °F -  
Max Temperature 66 °F 67 °F - ()
Min Temperature 45 °F 53 °F - ()
Degree Days  
Heating Degree Days 10    
Growing Degree Days 6 (Base 50)    
Moisture  
Dew Point 45 °F    
Average Humidity 67    
Maximum Humidity 93    
Minimum Humidity 32    
Precipitation  
Precipitation 0.00 in - - ()
Sea Level Pressure  
Sea Level Pressure 30.08 in    
Wind  
Wind Speed 5 mph ()    
Max Wind Speed 12 mph    
Max Gust Speed 22 mph    
Visibility 10.4 miles    
Events      
T = Trace of Precipitation, MM = Missing Value Source: Averaged Metar Reports

Daily Weather History Graph

Daily Weather History Graph

Search for Another Location

Airport or City:

Trip Planner

Search our weather history database for the weather conditions in past years. The results will help you decide how hot, cold, wet, or windy it might be!

Date:

Astronomy

Aug. 24, 2014 Rise Set
Actual Time 6:01 AM BST 8:05 PM BST
Civil Twilight 5:25 AM BST 8:41 PM BST
Nautical Twilight 4:40 AM BST 9:26 PM BST
Astronomical Twilight 3:48 AM BST 10:17 PM BST
Moon 4:57 AM BST (8/24) 7:13 PM BST (8/24)
Length of Visible Light 15h 16m
Length of Day
14h 04m
Waning Crescent, 1% of the Moon is Illuminated
Aug 24
Waning Crescent
Aug 25
New
Sep 2
First Quarter
Sep 9
Full
Sep 16
Last Quarter

Hourly Weather History & Observations

Time (BST) Temp. Windchill Dew Point Humidity Pressure Visibility Wind Dir Wind Speed Gust Speed Precip Events Conditions
12:00 AM 51 °F - 44 °F 71% 30.09 in 17 mi West 5.8 mph - -  
12:20 AM 50.0 °F - 46.4 °F 87% 30.09 in - West 5.8 mph - N/A   Clear
12:50 AM 48.2 °F - 44.6 °F 87% 30.09 in - West 5.8 mph - N/A   Clear
1:00 AM 51 °F - 44 °F 70% 30.09 in 14 mi West 5.8 mph - -  
1:20 AM 48.2 °F - 44.6 °F 87% 30.09 in - West 6.9 mph - N/A   Clear
1:50 AM 48.2 °F - 44.6 °F 87% 30.09 in 6.2 mi West 5.8 mph - N/A   Unknown
2:00 AM 49 °F - 43 °F 74% 30.10 in 15 mi West 4.6 mph - -  
2:20 AM 48.2 °F - 44.6 °F 87% 30.09 in 6.2 mi West 3.5 mph - N/A   Unknown
2:50 AM 46.4 °F 44.3 °F 44.6 °F 93% 30.09 in 6.2 mi WNW 4.6 mph - N/A   Unknown
3:00 AM 49 °F - 44 °F 75% 30.09 in 16 mi WNW 3.5 mph - -  
3:20 AM 46.4 °F 45.2 °F 44.6 °F 93% 30.09 in - West 3.5 mph - N/A   Clear
3:50 AM 46.4 °F - 44.6 °F 93% 30.09 in - Variable 2.3 mph - N/A   Clear
4:00 AM 47 °F - 43 °F 79% 30.09 in 11 mi West 2.3 mph - -  
4:20 AM 46.4 °F - 44.6 °F 93% 30.09 in - Variable 2.3 mph - N/A   Clear
4:50 AM 46.4 °F - 44.6 °F 93% 30.09 in - Variable 2.3 mph - N/A   Clear
5:00 AM 47 °F - 43 °F 80% 30.10 in 10 mi WNW 2.3 mph - -  
5:20 AM 46.4 °F 44.3 °F 42.8 °F 87% 30.09 in - West 4.6 mph - N/A   Clear
5:50 AM 44.6 °F 41.4 °F 42.8 °F 93% 30.09 in - West 5.8 mph - N/A   Clear
6:00 AM 46 °F - 43 °F 85% 30.11 in 9 mi West 4.6 mph - -  
6:20 AM 44.6 °F 42.2 °F 42.8 °F 93% 30.09 in - West 4.6 mph - N/A   Clear
6:50 AM 46.4 °F 44.3 °F 44.6 °F 93% 30.12 in - West 4.6 mph - N/A   Clear
7:00 AM 47 °F - 44 °F 85% 30.12 in 9 mi West 3.5 mph - -  
7:20 AM 48.2 °F - 46.4 °F 93% 30.12 in - West 5.8 mph - N/A   Clear
7:50 AM 50.0 °F - 46.4 °F 87% 30.12 in - WNW 4.6 mph - N/A   Clear
8:00 AM 50 °F - 45 °F 75% 30.12 in 10 mi West 3.5 mph - -  
8:20 AM 50.0 °F - 46.4 °F 87% 30.12 in - WNW 2.3 mph - N/A   Clear
8:50 AM 51.8 °F - 48.2 °F 88% 30.12 in - Variable 3.5 mph - N/A   Clear
9:00 AM 53 °F - 45 °F 67% 30.12 in 13 mi SW 2.3 mph - -  
9:20 AM 55.4 °F - 48.2 °F 77% 30.12 in - Variable 2.3 mph - N/A   Clear
9:50 AM 57.2 °F - 48.2 °F 72% 30.12 in - SSW 5.8 mph - N/A   Clear
10:00 AM 57 °F - 46 °F 56% 30.12 in 13 mi WSW 3.5 mph - -  
10:20 AM 57.2 °F - 48.2 °F 72% 30.12 in 6.2 mi SW 8.1 mph - N/A   Partly Cloudy
10:50 AM 59.0 °F - 46.4 °F 63% 30.12 in 6.2 mi Variable 6.9 mph - N/A   Partly Cloudy
11:00 AM 60 °F - 45 °F 47% 30.12 in 16 mi SW 5.8 mph - -  
11:20 AM 60.8 °F - 46.4 °F 59% 30.09 in 6.2 mi WSW 6.9 mph - N/A   Partly Cloudy
11:50 AM 62.6 °F - 46.4 °F 55% 30.09 in 6.2 mi WSW 9.2 mph - N/A   Partly Cloudy
12:00 PM 62 °F - 45 °F 42% 30.11 in 16 mi SW 6.9 mph - -  
12:20 PM 62.6 °F - 46.4 °F 55% 30.09 in 6.2 mi WSW 6.9 mph 18.4 mph N/A   Partly Cloudy
12:50 PM 60.8 °F - 44.6 °F 55% 30.09 in 6.2 mi WSW 9.2 mph - N/A   Partly Cloudy
1:00 PM 62 °F - 43 °F 38% 30.10 in 16 mi West 6.9 mph - -   Scattered Clouds
1:20 PM 62.6 °F - 44.6 °F 52% 30.09 in 6.2 mi West 8.1 mph - N/A   Scattered Clouds
1:50 PM 64.4 °F - 44.6 °F 49% 30.09 in 6.2 mi West 6.9 mph - N/A   Scattered Clouds
2:00 PM 64 °F - 43 °F 35% 30.09 in 15 mi West 9.2 mph - -   Scattered Clouds
2:20 PM 62.6 °F - 42.8 °F 48% 30.09 in 6.2 mi Variable 6.9 mph - N/A   Partly Cloudy
2:50 PM 62.6 °F - 44.6 °F 52% 30.09 in 6.2 mi SW 10.4 mph - N/A   Partly Cloudy
3:00 PM 63 °F - 42 °F 35% 30.08 in 19 mi SW 8.1 mph - -   Mostly Cloudy
3:20 PM 64.4 °F - 44.6 °F 49% 30.06 in 6.2 mi SW 9.2 mph - N/A   Scattered Clouds
4:00 PM 65 °F - 43 °F 33% 30.06 in 16 mi SW 6.9 mph - -   Mostly Cloudy
4:20 PM 64.4 °F - 42.8 °F 45% 30.04 in 6.2 mi West 5.8 mph - N/A   Partly Cloudy
4:50 PM 64.4 °F - 42.8 °F 45% 30.04 in 6.2 mi SW 5.8 mph - N/A   Partly Cloudy
5:00 PM 64 °F - 41 °F 32% 30.05 in 16 mi SW 3.5 mph - -   Partly Cloudy
5:20 PM 64.4 °F - 44.6 °F 49% 30.04 in 6.2 mi WSW 6.9 mph - N/A   Partly Cloudy
5:50 PM 64.4 °F - 44.6 °F 49% 30.04 in 6.2 mi SSW 8.1 mph - N/A   Partly Cloudy
6:00 PM 64 °F - 43 °F 35% 30.04 in 16 mi SSW 6.9 mph - -   Partly Cloudy
6:20 PM 64.4 °F - 46.4 °F 52% 30.04 in 6.2 mi SSW 10.4 mph - N/A   Partly Cloudy
6:50 PM 62.6 °F - 46.4 °F 55% 30.04 in 6.2 mi SSW 11.5 mph - N/A   Partly Cloudy
7:00 PM 63 °F - 46 °F 43% 30.04 in 14 mi South 11.5 mph - -   Partly Cloudy
7:20 PM 62.6 °F - 48.2 °F 59% 30.04 in - SSW 10.4 mph - N/A   Clear
7:50 PM 60.8 °F - 48.2 °F 63% 30.04 in - SW 9.2 mph - N/A   Clear
8:00 PM 61 °F - 46 °F 48% 30.04 in 14 mi SSW 11.5 mph - -   Partly Cloudy
8:20 PM 60.8 °F - 48.2 °F 63% 30.04 in - SSW 10.4 mph 21.9 mph N/A   Clear
8:50 PM 59.0 °F - 48.2 °F 67% 30.04 in - SSW 9.2 mph - N/A   Clear
9:00 PM 60 °F - 48 °F 54% 30.04 in 13 mi South 9.2 mph - -   Scattered Clouds
9:20 PM 59.0 °F - 50.0 °F 72% 30.04 in - South 8.1 mph - N/A   Clear
9:50 PM 59.0 °F - 50.0 °F 72% 30.04 in - South 8.1 mph - N/A   Clear
10:00 PM 59 °F - 48 °F 58% 30.04 in 12 mi South 6.9 mph - -   Overcast
10:20 PM 59.0 °F - 48.2 °F 67% 30.04 in - South 8.1 mph - N/A   Clear
10:50 PM 57.2 °F - 48.2 °F 72% 30.01 in - South 6.9 mph - N/A   Clear
11:00 PM 58 °F - 48 °F 59% 30.02 in 13 mi South 6.9 mph - -   Mostly Cloudy
11:20 PM 57.2 °F - 48.2 °F 72% 30.01 in - South 5.8 mph - N/A   Clear
11:50 PM 57.2 °F - 48.2 °F 72% 30.01 in - SSE 4.6 mph - N/A   Clear